Location: Makanda
(37.6176°N, 89.2090°W)
Time: 19:08:10
(UTC+00:00)

Cosmos 2242 Rocket - Pass Details

Date: 23 September 2019
Orbit: 618 x 652 km, 82.5° (Epoch: 20 October)

Event Time Altitude Azimuth Distance (km) Brightness Sun altitude
Exits shadow 09:20:55 51° 53° (NE) 805 4.4 -28.6°
Drops below altitude 10° 09:24:36 10° 15° (NNE) 2,028 6.6 -27.9°
Sets 09:26:52 0° 12° (NNE) 2,934 7.5 -27.5°
